Regional Weather Roundup
Issued by NWS

Home | Current Version | Previous Version | Text Only | Print | Product List | Glossary Off
Versions: 1 2 3 4 5 6 7 8 9 10 11 12 13 14 15 16 17 18 19 20 21 22 23 24 25 26 27 28 29 30 31 32 33 34 35 36 37 38 39 40 41 42 43 44 45 46 47 48 49 50

000
ASUS43 KMPX 300501
RWRMN
WEATHER ROUNDUP FOR MINNESOTA
NATIONAL WEATHER SERVICE TWIN CITIES/CHANHASSEN MN
1100 PM CST THU JAN 29 2015


NOTE: "FAIR" INDICATES FEW OR NO CLOUDS BELOW 12,000 FEET WITH NO
SIGNIFICANT WEATHER AND/OR OBSTRUCTIONS TO VISIBILITY. N/A MEANS
CURRENT SKY AND/OR WEATHER CONDITIONS ARE NOT AVAILABLE.

MNZ060>063-068>070-300600-
   Twin Cities Metro

CITY           SKY/WX    TMP DP  RH WIND       PRES   REMARKS
TWIN CITIES    CLEAR     16   5  62 N12       30.53R WCI   3
ST PAUL        CLEAR     16   6  65 NW10      30.54R WCI   4
CRYSTAL        CLEAR     16   5  62 N6        30.51R WCI   7
BLAINE         CLEAR     16   7  67 NW3       30.51R
LAKEVILLE      CLEAR     14   7  73 NW8       30.51R WCI   3
EDEN PRAIRIE   CLEAR     15   5  64 NW5       30.52R WCI   8
SOUTH ST PAUL  CLEAR     17   7  65 N9        30.52R WCI   5
LAKE ELMO      FAIR      14   7  73 NW5       30.52R WCI   6
$$
MNZ001>005-007-008-013>017-022>024-027-028-300600-
   Northwest Minnesota

CITY           SKY/WX    TMP DP  RH WIND       PRES   REMARKS
BEMIDJI        MOCLDY    -4  -8  86 W3        30.51R
HALLOCK        MOCLDY     1  -2  85 CALM      30.56F
ROSEAU         PTCLDY     0  -8  71 W3        30.54S
WARROAD        MOCLDY    -6  -9  84 W3        30.53S
THIEF RVR FALL MOCLDY     1   0  92 CALM      30.54F
CROOKSTON      MOCLDY     3   0  85 NE6       30.58F WCI  -8
FOSSTON        MOCLDY    -2  -6  84 CALM      30.55R
DETROIT LAKES  MOCLDY     5   1  85 N3        30.55R
MOORHEAD       PTCLDY     7   3  85 NE5       30.59F WCI  -2
PARK RAPIDS    CLOUDY     5   0  79 NW8       30.50R WCI  -8
MAHNOMEN       FAIR       3  -1  83 NW6       30.55R WCI  -8
$$
MNZ006-009>011-018-025>026-300600-
   North Central Minnesota

CITY           SKY/WX    TMP DP  RH WIND       PRES   REMARKS
BAUDETTE       CLOUDY    -3  -8  79 NW6       30.50R WCI -15
FLAG ISLAND    PTCLDY    -4  -8  84 NW8       30.50F WCI -19
INTL FALLS     CLOUDY   -14 -17  87 CALM      30.49R
WASKISH        MOCLDY    -2  -6  84 CALM      30.52R
BIG FORK       PTCLDY    -6  -9  84 CALM      30.49R
LONGVILLE      PTCLDY     3   0  85 NW5       30.50R WCI  -6
GRAND RAPIDS   PTCLDY     3   0  85 NW9       30.47R WCI -11
CRANE LAKE     CLOUDY     3  -2  78 CALM      30.50R
ORR            PTCLDY    -2  -8  78 CALM      30.44S
COOK           PTCLDY     1  -2  85 CALM      30.47R
WALKER         FAIR       1  -3  82 CALM      30.50R
$$
MNZ012-019>021-037-300600-
   Northeast Minnesota

CITY           SKY/WX    TMP DP  RH WIND       PRES   REMARKS
DULUTH         MOCLDY     6  -2  69 NW8       30.44R WCI  -7
ELY            CLOUDY     5  -2  72 N6        30.43R WCI  -6
HIBBING        FAIR       2  -5  72 NW8       30.46S WCI -12
EVELETH        PTCLDY     7   0  72 N8        30.46S WCI  -6
DULUTH HARBOR  CLEAR     10   1  67 NW14      30.52S WCI  -5
TWO HARBORS    CLOUDY    10   3  72 NW5       30.45R WCI   2
SILVER BAY     CLOUDY    10   1  67 NW3       30.44R
GRAND MARAIS     N/A      6  -4  63 CALM      30.48R
G MARAIS ARPRT CLEAR      0  -8  71 NW12G23   30.35R WCI -18
$$
MNZ029>031-032-039>041-046>048-054>057-064-300600-
   West Central Minnesota

CITY           SKY/WX    TMP DP  RH WIND       PRES   REMARKS
FERGUS FALLS   PTCLDY     7   0  72 NW5       30.60S WCI  -2
WHEATON        PTCLDY     9   5  85 N5        30.60S WCI   0
MORRIS         CLEAR     10   7  85 NW6       30.57R WCI   1
ALEXANDRIA     PTCLDY     8   3  80 NW7       30.53R WCI  -3
ELBOW LAKE     FAIR       8   3  82 NW7       30.56S WCI  -4
WADENA         PTCLDY     3   0  85 W5        30.53R WCI  -6
GLENWOOD       CLEAR      9   5  85 NW7       30.54R WCI  -3
APPLETON       CLEAR     16  10  79 N6        30.58S WCI   7
BENSON         CLEAR     10   7  85 N9        30.57R WCI  -2
ORTONVILLE     PTCLDY    16   9  73 N5        30.58R WCI   9
MADISON        FLURRIES  21  16  79 N7        30.58R WCI  13
WILLMAR        FAIR      14   7  73 NW10      30.57R WCI   1
$$
MNZ033>034-036-042>043-049>051-058-059-300600-
   Central Minnesota

CITY           SKY/WX    TMP DP  RH WIND       PRES   REMARKS
ST CLOUD       CLEAR     11   6  81 NW7       30.53R WCI   0
SAUK CENTRE    FAIR       9   4  82 NW8       30.55R WCI  -3
PAYNESVILLE    CLEAR      9   6  85 W7        30.54R WCI  -2
AITKIN         PTCLDY     9   1  72 CALM      30.49R
PINE RIVER     PTCLDY     5   0  78 NW3       30.53R
BRAINERD       MOCLDY     7   2  80 NW5       30.51R WCI  -2
STAPLES        MOCLDY     3   1  92 NW6       30.52R WCI  -8
LONG PRAIRIE   FAIR       9   3  78 W8        30.53R WCI  -4
LITTLE FALLS   CLEAR     10   5  79 CALM      30.53R
LITCHFIELD     CLEAR     12  10  92 NW7       30.55R WCI   2
BUFFALO        CLEAR     14   8  76 W7        30.54R WCI   4
MAPLE LAKE     CLEAR     14  10  81 NW7       30.54R WCI   4
$$
MNZ037-044-045-052-053-300600-
   East Central Minnesota

CITY           SKY/WX    TMP DP  RH WIND       PRES   REMARKS
PRINCETON      CLEAR     12   7  79 CALM      30.51R
MORA           CLEAR     10   3  72 N7        30.52R WCI   0
CAMBRIDGE      CLEAR     14   3  62 NW5       30.50R WCI   6
RUSH CITY      CLEAR     12   4  70 N9        30.51S WCI   0
MOOSE LAKE     CLEAR      9   1  72 N6        30.49R WCI  -1
HINCKLEY       FAIR      10   5  79 CALM      30.50R
CLOQUET        FLURRIES   5  -2  72 NW5       30.46S WCI  -4
MCGREGOR       PTCLDY     9   3  78 N9        30.49S WCI  -5
$$
MNZ071>073-080-081-089-090-097-098-300600-
   Southwest Minnesota

CITY           SKY/WX    TMP DP  RH WIND       PRES   REMARKS
MONTEVIDEO     PTCLDY    12  10  92 N5        30.59R WCI   4
GRANITE FALLS  CLEAR     15  11  86 NW5       30.60R WCI   7
CANBY          CLOUDY    19  13  76 N9        30.58S WCI   8
MARSHALL       CLOUDY    18  10  73 N10       30.58R WCI   6
REDWOOD FALLS  CLEAR     15   9  76 NW10      30.57R WCI   2
OLIVIA         CLEAR     14  10  85 NW9       30.56R WCI   2
PIPESTONE      CLOUDY    21  18  86 N6        30.51F WCI  14
WINDOM         CLEAR     16  12  86 NW10      30.53R WCI   3
WORTHINGTON    CLOUDY    19  12  73 N14       30.54R WCI   6
JACKSON        CLEAR     18  14  86 NW14      30.52S WCI   4
TRACY          CLOUDY    19  14  83 N7        30.56R WCI   9
SLAYTON        CLOUDY    19  14  81 CALM      30.54R
$$
MNZ065>067-074>077-082>085-091>093-300600-
   South Central Minnesota

CITY           SKY/WX    TMP DP  RH WIND       PRES   REMARKS
MANKATO        CLEAR     16   9  73 NW13      30.53R WCI   2
NEW ULM        CLEAR     16  10  79 NW10      30.55R WCI   3
ST JAMES       CLEAR     18  12  79 NW10      30.56R WCI   6
FAIRMONT       CLEAR     18  10  73 NW12      30.52R WCI   5
GLENCOE        CLEAR     17  12  82 W9        30.54R WCI   5
FARIBAULT      CLEAR     18   9  68 NW6       30.51R WCI   9
OWATONNA       CLEAR     16   9  73 NW8       30.50R WCI   5
WASECA         CLEAR     18  12  79 NW9       30.53R WCI   6
ALBERT LEA     CLEAR     18  12  79 NW8       30.49R WCI   7
$$
MNZ078>079-086>088-094>096-300600-
   Southeast Minnesota

CITY           SKY/WX    TMP DP  RH WIND       PRES   REMARKS
ROCHESTER      CLEAR     15   7  70 N14       30.46R WCI   0
RED WING       CLEAR     16   7  67 N6        30.51R WCI   7
STANTON        CLEAR     18   7  62 N10       30.50R WCI   6
DODGE CENTER   CLEAR     16   9  73 N14       30.47R WCI   1
WINONA         CLOUDY    21  12  68 N13       30.48R WCI   9
AUSTIN         CLEAR     18  10  73 N13       30.48R WCI   4
PRESTON        CLEAR     16   9  74 N12       30.45R WCI   2
$$
ABBREVIATIONS USED IN REMARKS
   TC - TEMPERATURES IN CELSIUS
  WCI - WIND CHILL INDEX
   HX - HEAT INDEX
  VSB - VISIBILITY
$$



USA.gov is the U.S. government's official web portal to all federal, state and local government web resources and services.